Regional Weather Roundup
Issued by NWS Charleston, SC

Current Version | Previous Version | Graphics & Text | Print | Product List | Glossary On
Versions: 1 2 3 4 5 6 7 8 9 10 11 12 13 14 15 16 17 18 19 20 21 22 23 24 25 26 27 28 29 30 31 32 33 34 35 36 37 38 39 40 41 42 43 44 45 46 47 48 49 50
000
ASUS42 KCHS 221325
RWRCHS

REGIONAL WEATHER ROUNDUP
NATIONAL WEATHER SERVICE CHARLESTON SC
800 AM EST MON DEC 22 2014

NOTE: "FAIR" INDICATES FEW OR NO CLOUDS BELOW 12,000 FEET WITH NO
SIGNIFICANT WEATHER AND/OR OBSTRUCTIONS TO VISIBILITY.

NOT ALL STATIONS ARE QUALITY CONTROLLED BY THE NATIONAL
WEATHER SERVICE. USE DATA WITH CAUTION...ESPECIALLY
DEWPOINT OBSERVATIONS.

SCZ027-030-031-034>040-042>050-221400-
...SOUTHEAST SOUTH CAROLINA...

CITY           SKY/WX    TMP DP  RH WIND       PRES   REMARKS
N CHARLESTON   CLOUDY    45  45 100 N5        30.08R FOG
WATERFRONT PRK NOT AVBL
MOUNT PLEASANT CLOUDY    46  46 100 N3        30.08R FOG
PINOPOLIS        N/A     46  43  87 NE9       30.00R
MONCKS CORNER    N/A     45  43  93 N3        30.08S FOG
SUMMERVILLE    CLOUDY    45  45 100 N6        30.09S FOG
BEAUFORT MCAS  CLOUDY    48  47  96 N8        30.07R FOG
BEAUFORT ARPT  CLOUDY    48  48 100 NE9       30.05S FOG
HILTON HEAD IS CLOUDY    48  48 100 N7        30.06S FOG
WALTERBORO     CLOUDY    45 N/A N/A NE5       30.08S FOG
ALLENDALE      LGT RAIN  45  45 100 VRB5      30.07S

...SOUTHERN MIDLANDS AND PEE DEE...

CITY           SKY/WX    TMP DP  RH WIND       PRES   REMARKS
GEORGETOWN     NOT AVBL
KINGSTREE      NOT AVBL
ORANGEBURG     CLOUDY    44  41  89 NE10      30.09R
BARNWELL       CLOUDY    45  45 100 NE8       30.09R
AIKEN          RAIN      45  45 100 NE8       30.11R
MANNING        NOT AVBL
COLUMBIA       LGT RAIN  45  42  89 NE5       30.09S
SUMTER         CLOUDY    43  41  94 NE10      30.09R FOG
FLORENCE       CLOUDY    43  40  89 NE12      30.10S FOG
MYRTLE BEACH   LGT RAIN  45  41  87 N13       30.09R FOG
N MYRTLE BEACH CLOUDY    44  42  93 N8        30.08R FOG

$$

GAZ063-065-086>088-099>101-113>116-118-119-134>141-150-221400-
...SOUTHEAST GEORGIA...

CITY           SKY/WX    TMP DP  RH WIND       PRES   REMARKS
SAVANNAH ARPT  FOG       48  47  96 N5        30.06R VSB 1/2
HUNTER AAF     CLOUDY    48  48 100 NE5       30.03F FOG
FORT STEWART   CLOUDY    48  46  93 NE3       30.03F FOG
STATESBORO     CLOUDY    46  46 100 NE5       30.06R FOG
SYLVANIA       CLOUDY    46  46 100 E6        30.07S FOG
CLAXTON        FOG       46  46 100 NE7       30.06R VSB 1

...CSRA...CENTRAL AND FAR SOUTHEAST GEORGIA...

CITY           SKY/WX    TMP DP  RH WIND       PRES   REMARKS
THOMSON        CLOUDY    47  47 100 NE5       30.13R
AUGUSTA-BUSH   CLOUDY    46  44  93 NE6       30.09R FOG
AUGUSTA-DANIEL CLOUDY    46  46 100 NE5       30.09R FOG
SWAINSBORO     CLOUDY   N/A N/A N/A NE3       30.06S FOG
VIDALIA        CLOUDY    46  46 100 NE7       30.04S FOG
EASTMAN        HVY RAIN  48  48 100 E6        30.05S VSB 3/4
HAZLEHURST     LGT RAIN  49  49 100 E5        30.03R VSB 1/4
ALMA           FOG       48  48 100 NE6       30.02S VSB 1/2
WAYCROSS       FOG       53  53 100 NE3       30.02F VSB 1/4
JESUP          FOG       52  52 100 CALM      30.04R VSB 1/2
BAXLEY         LGT RAIN  50  50 100 NE6       30.03S VSB 1/2
BRUNSWICK      CLOUDY    54  52  94 NE6       30.03F VSB 1
SAINT SIMONS   CLOUDY    56  55  97 NE6       30.02S FOG

$$

SCZ027-028-034-036>038-045-046-048>050-GAZ119-141-221400-
...LAKE AND SUPPLEMENTAL COASTAL OBSERVATIONS...

STATION/POSITION TIME  TEMP    WIND        PRES    WAVE   SWELL
                       AIR SEA DIR/SP/G            HT/PER HT/PER/DIR
                 (UTC) (F)     (DEG/KT/KT) (MB)    (FT/S) (FT/S/D)
UPR LAKE MARION  NOT AVBL
WINYAH BAY       1300   45     360/  7     1017.0S
LAKE MURRAY      1200   44      30/  3/  7 1018.6R
ACE BASIN NERRS  1300   46      10/  2     1018.0R
FORT PULASKI     1300   49 56   10/  6/  8 1017.9S
SAPELO ISLAND    1300   53      10/  8     1017.0S

$$

ANZ835-935-AMZ111-154-330-350-352-354-370-450-454-472-221400-
...C-MAN AND BUOY OBSERVATIONS...

STATION/POSITION TIME  TEMP    WIND        PRES    WAVE   SWELL
                       AIR SEA DIR/SP/G            HT/PER HT/PER/DIR
                 (UTC) (F)     (DEG/KT/KT) (MB)    (FT/S) (FT/S/D)
BUOY 41004       1300   63 73  360/ 17/ 21 1015.5F   5/ 8   3/10
BUOY 41008       1300   58 59   20/ 10/ 12 1016.4S   4/ 8   3/ 80/ 8
FOLLY BEACH CMAN 1300   47     350/  9/ 11 1018.4R
CAPERS NEARSHORE 1200   48      20/ 16/ 16   N/A
FRIPP NEARSHORE  NOT AVBL


STATION/POSITION TIME  TEMP    WIND        PRES    WAVE   SWELL
                       AIR SEA DIR/SP/G            HT/PER HT/PER/DIR
                 (UTC) (F)     (DEG/KT/KT) (MB)    (FT/S) (FT/S/D)
5E ST. MARYS GA  1300      61                N/A     4/ 7
FRYING PAN BUOY  1300   62 70   30/ 14/ 16 1016.8R   6/ 8   3/ 90/ 8
BUOY 41025       1300   67                 1017.0F   9/ 8
CAPE LOOKOUT NC  1300   52      10/  9/ 11 1016.5F
BUOY 41002       1249   69 72  320/ 14/ 17 1018.8R   5/ 6   2/ 70/ 8
BUOY 41010       1300   74 77  200/  6/  8 1017.9F   3/ 8   3/ 40/ 8
ST AUGUSTINE FL  1300   63     110/ 10/ 11 1016.7F


$$



USA.gov is the U.S. government's official web portal to all federal, state and local government web resources and services.